Regional Weather Roundup
Issued by NWS

Home | Current Version | Previous Version | Graphics & Text | Print | Product List | Glossary On
Versions: 1 2 3 4 5 6 7 8 9 10 11 12 13 14 15 16 17 18 19 20 21 22 23 24 25 26 27 28 29 30 31 32 33 34 35 36 37 38 39 40 41 42 43 44 45 46 47 48 49 50
000
ASUS45 KTFX 262319
RWRMT
MONTANA HOURLY WEATHER ROUNDUP
NATIONAL WEATHER SERVICE GREAT FALLS MT
419 PM MST WED NOV 26 2014

NOTE: "FAIR" INDICATES FEW OR NO CLOUDS BELOW 12000 FEET WITH NO
SIGNIFICANT WEATHER AND/OR OBSTRUCTIONS TO VISIBILITY.

* THESE STATIONS ARE NOT UNDER NWS QUALITY CONTROL. THEY DO NOT
   REPORT WEATHER SUCH AS PRECIPITATION OR FOG.

MTZ001>007-043-270000-
WEST OF THE DIVIDE
CITY           SKY/WX    TMP DP  RH WIND       PRES   REMARKS
KALISPELL      LGT RAIN  34  30  85 CALM      30.12S VSB 2
MISSOULA       FOG       34  34 100 CALM      30.17F
BUTTE          PTSUNNY   45  30  56 W6        30.15R
MULLAN PASS    FOG       34  34 100 SW10G22   30.11R VSB M1/4 WCI  26
* ESSEX        N/A       30  29  96 S1         N/A
* EUREKA APT   CLOUDY    34  30  85 CALM      30.11F
* HAMILTON APT PTSUNNY   48  36  63 SW7       30.15S
* LIBBY APT    CLOUDY    34  32  92 CALM      30.11F
* LINCOLN      N/A       38  35  89 SE2        N/A
* POLSON       N/A       33  32  96 S1         N/A
* RONAN APT    CLOUDY    34  30  85 N/A        N/A
* SEELEY LAKE  N/A       33  32  96 SE2        N/A
* THOMP F APT  CLOUDY    35  32  89 SE2G7      N/A
* YAAK HILL    N/A       33  31  92 N/A        N/A
$$

MTZ008-052>055-270000-
SOUTHWEST MONTANA
CITY           SKY/WX    TMP DP  RH WIND       PRES   REMARKS
BOZEMAN        FOG       28  27  96 NE5       30.14R WCI  22
DILLON         PTCLDY    48  30  50 SE10      30.17S
* W YELLOWSTON CLOUDY    34  32  92 SW4G14     N/A
* ENNIS APT    CLOUDY    46  30  54 S9         N/A
* THREE FORKS  PTSUNNY   30   5  34 N/A        N/A
* BOULDER HILL N/A       42  28  58 S4G10      N/A
* MONIDA PASS  N/A       31  31 100 SE17       N/A   WCI  20
* RAYNOLDS PAS N/A       34  17  50 SE12G18    N/A   WCI  25
* WHITEHALL    N/A       47  31  54 W10G19     N/A
* WISE RIVER   N/A       45  30  56 NW9G17     N/A
$$

MTZ009>010-012-014-046-048-049-054-270000-
EAST SLOPES AND CENTRAL MONTANA
CITY           SKY/WX    TMP DP  RH WIND       PRES   REMARKS
CUT BANK       LGT SNOW  28  27  96 SE9       30.08R VSB 1    WCI  19
GREAT FALLS    CLOUDY    28  28 100 E12       30.08R WCI  18
HELENA         PTSUNNY   30  28  92 NW6       30.12R WCI  24
MALMSTROM AFB  LGT SNOW  30  30 100 NE6       30.11R VSB 2 1/4 WCI  24
* CONRAD       CLOUDY    28  28 100 CALM       N/A
* DEARBORN     N/A       32  30  92 VRB3G8     N/A
* EAST GLACIER N/A       26  25  96 SE4        N/A
* MONARCH      N/A       25  21  85 E13        N/A   WCI  13
* PENDROY      N/A       28  28 100 SE9        N/A   WCI  19
* ROGERS PASS  N/A       36  33  89 SE16G30    N/A   WCI  26
* SAINT MARY   N/A       30  28  92 N2         N/A
* SWEET GRASS  N/A       27  27 100 S17        N/A   WCI  14
* WHITE SULPH  N/A       31  27  85 E8G13      N/A   WCI  24
$$

MTZ011-013-016-021-035-040-045-047-050-051-270000-
NORTH CENTRAL MONTANA
CITY           SKY/WX    TMP DP  RH WIND       PRES   REMARKS
HAVRE          LGT SNOW  30  27  89 E9        30.18R WCI  22
LEWISTOWN      LGT SNOW  28  25  89 E9        30.11S VSB 2    WCI  19
* N BAR RANCH  FOG       27  25  92 SE6       30.13S VSB 1 1/2 WCI  20
* CHINOOK      CLOUDY    30  27  89 E9        30.21S WCI  22
* FORT BENTON  CLOUDY    30  28  92 E9        30.15S WCI  22
* MALTA APT    CLOUDY    30  21  69 N/A        N/A
* CHESTER      N/A       28  26  92 SE7        N/A   WCI  21
* DENTON       N/A       29  28  96 E11        N/A   WCI  19
* GEYSER       N/A       27  26  96 VRB5G10    N/A   WCI  21
* JUDITH GAP   N/A       25  25 100 S14        N/A   WCI  13
* LOMA         N/A       30  28  92 E12        N/A   WCI  20
$$

MTZ017>020-022>027-061-062-270000-
NORTHEAST MONTANA
CITY           SKY/WX    TMP DP  RH WIND       PRES   REMARKS
GLASGOW        CLOUDY    21  16  81 E15       30.28S WCI   7
GLENDIVE       CLOUDY    19  14  81 NE8       30.32R WCI   9
JORDAN         CLOUDY    28  23  81 SE9       30.24F WCI  19
SIDNEY         PTCLDY    12   7  80 CALM      30.38S
WOLF POINT     CLOUDY    18   9  68 E9        30.34F WCI   7
* BEAVER HILL  N/A       20  14  77 N/A        N/A
* CIRCLE       N/A       24  20  85 E4G10      N/A
* LINDSAY DVD  N/A       21  15  78 SE4        N/A
* NAVAJO       N/A       10   5  80 E6         N/A
* PLENTYWOOD A SUNNY      9   1  70 N/A       30.36R
* POPLAR APT   PTCLDY    16   7  67 N/A       30.36F
* SACO         N/A       26  21  81 E12        N/A   WCI  15
* SCOBEY APT   PTCLDY    14   5  67 N/A        N/A
$$

MTZ028>042-056>058-270000-
SOUTHCENTRAL AND SOUTHEAST MONTANA
CITY           SKY/WX    TMP DP  RH WIND       PRES   REMARKS
BAKER          CLOUDY    21  16  81 E6        30.28S WCI  13
BILLINGS       LGT SNOW  28  28 100 SE6       30.18S VSB 1 1/2 WCI  21
LIVINGSTON     CLOUDY    28  25  89 E3        30.11S
MILES CITY     CLOUDY    27  21  78 E8        30.26S WCI  19
* BIG TIMBER A CLOUDY    28  25  89 E3        30.13F
* FORSYTH APT  CLOUDY    28  28 100 E7        30.25S VSB 1    WCI  21
* LAUREL APT   CLOUDY    28  23  81 N/A        N/A
* HYSHAM       N/A       29  27  92 E6         N/A   WCI  23
* LAME DEER    N/A       25  24  96 E4         N/A
* REED POINT   N/A       30  28  92 E8         N/A   WCI  22
* ROSCOE HILL  N/A       26  20  78 E4         N/A
$$

REGIONAL REPORTS...DAKOTAS
CITY           SKY/WX    TMP DP  RH WIND       PRES   REMARKS
WILLISTON      CLOUDY     9   1  70 N6        30.39R WCI  -1
DICKINSON      CLOUDY    18  10  71 NE10      30.30R WCI   6
BEACH          SUNNY     18  16  92 CALM      30.30R
CROSBY         SUNNY     -2  -4  91 CALM      30.41S
TIOGA          SUNNY      1   0  95 E5        30.40R WCI  -9
BISMARCK       PTCLDY     5   0  80 NE6       30.44R WCI  -6
GRAND FORKS    SUNNY     -4  -9  79 N6        30.51R WCI -17
FARGO          SUNNY      1  -6  72 N9        30.48R WCI -14
BUFFALO SD     CLOUDY    21  18  88 NE12      30.21R WCI   9
RAPID CITY     CLOUDY    30  25  82 CALM      30.26R
$$

REGIONAL REPORTS...WYOMING/IDAHO/WASHINGTON
CITY           SKY/WX    TMP DP  RH WIND       PRES   REMARKS
GILLETTE       LGT SNOW  27  23  85 SE5       30.20R VSB 1 3/4 WCI  21
SHERIDAN       LGT SNOW  28  27  96 S3        30.18F
CODY           PTCLDY    25  23  92 NE6       30.13R WCI  18
YELLOWSTONE LA CLOUDY    32  28  85 VRB7      30.26R WCI  25
SALMON         PTSUNNY   37  34  89 CALM      30.20R
MULLAN PASS    FOG       34  34 100 SW10G22   30.11S VSB M1/4 WCI  26
SAND POINT     N/A       34  34 100 CALM      30.13S VSB 2 1/2
SPOKANE        FOG       37  37 100 NE7       30.10S VSB 1/2  WCI  32
$$

REGIONAL REPORTS...ALBERTA
CITY           SKY/WX    TMP DP  RH WIND       PRES   REMARKS
CALGARY        FOG       28  25  89 S5        30.06S WCI  22
LETHBRIDGE     LGT SNOW  30  30 100 SE7       30.09S VSB 3    WCI  23
MEDICINE HAT   CLOUDY    30  25  82 E3        30.17S
EDMONTON       PTSUNNY   16  12  84 NW5       30.13R WCI   8
WATERTON GATE  N/A       30  28  92 NE5        N/A   WCI  25
CARDSTON       N/A       28  28 100 SE7        N/A   WCI  21
MILK RIVER     N/A       28  27  96 S13        N/A   WCI  17
$$

REGIONAL REPORTS...SASKATCHEWAN
CITY           SKY/WX    TMP DP  RH WIND       PRES   REMARKS
SWIFT CURRENT  PTSUNNY   18  16  92 S12       30.21S WCI   5
MOOSE JAW      LGT SNOW N/A N/A N/A SE8        N/A
REGINA         SUNNY     -4  -9  79 SE7       30.40S WCI -18
VAL MARIE      N/A       25  21  85 S8         N/A   WCI  16
ASSINIBOIA     N/A        9   5  84 SE9        N/A   WCI  -4
CORONACH       N/A       12   9  88 SE7        N/A   WCI   1

$$



USA.gov is the U.S. government's official web portal to all federal, state and local government web resources and services.